Location: Canyon City
(32.5951°N, 116.5278°W)
Time: 22:31:51
(UTC+00:00)

OAO 3 Rocket - Pass Details

Date: 11 December 2024
Orbit: 618 x 666 km, 35.0° (Epoch: 19 January)

Event Time Altitude Azimuth Distance (km) Brightness Sun altitude
Exits shadow 13:24:02 26° 284° (WNW) 1,260 4.0 -15.3°
Maximum altitude 13:26:36 64° 359° (N) 701 3.2 -14.8°
Drops below altitude 10° 13:31:12 10° 81° (E) 1,995 6.7 -13.9°
Sets 13:33:33 0° 84° (E) 2,895 7.8 -13.4°
